Location: Santa Fe
(35.6870°N, 105.9370°W)
Time: 07:45:46
(UTC-06:00)

Amateur Radio Satellites - All Passes

Search period start: 23 August 2017 07:15
Search period end: 24 August 2017 07:15
Location: Santa Fe, 35.6870°N, 105.9370°W

Satellite Date Start Highest point End Downlink Frequencies (MHz)
Time Altitude Azimuth
HO-68 23 Aug 07:20:01 07:25:46 26° 95° (E) 07:31:29 435.675
NUDT-PHONESAT 23 Aug 07:29:44 07:33:29 74° 284° (WNW) 07:37:14 437.300
LilacSat-2 23 Aug 07:33:14 07:36:56 43° 286° (WNW) 07:40:36 437.200
XW-2D 23 Aug 07:34:06 07:37:46 43° 286° (WNW) 07:41:25 145.860 - 145.880
XW-2B 23 Aug 07:45:24 07:48:52 32° 287° (WNW) 07:52:19 145.730 - 145.750
CUTE-I 23 Aug 07:48:47 07:54:01 59° 287° (WNW) 07:59:13 437.470
XW-2A 23 Aug 07:51:22 07:53:29 15° 95° (E) 07:55:35 145.665 - 145.685
NO-84 23 Aug 07:53:09 07:55:52 29° 42° (NE) 07:58:46 435.350 FM
CUTE 1.7 + AOD 2 23 Aug 08:01:06 08:05:18 52° 99° (E) 08:09:28 437.475
XW-2C 23 Aug 08:05:14 08:07:59 19° 290° (WNW) 08:10:44 145.795 - 145.815
STRAND 1 23 Aug 08:11:53 08:16:51 51° 260° (W) 08:21:49 437.568
XW-2F 23 Aug 08:15:34 08:17:50 15° 291° (WNW) 08:20:07 145.980 - 146.000
UWE-3 23 Aug 08:26:56 08:30:42 29° 97° (E) 08:34:32 435.000/436.395/437.385
PCSat 23 Aug 08:27:44 08:33:05 61° 247° (WSW) 08:38:24 145.827
FO-29 23 Aug 08:33:32 08:39:40 29° 67° (ENE) 08:45:20 435.910
SO-50 23 Aug 08:35:20 08:39:44 48° 245° (WSW) 08:44:11 436.795
Tancredo 1 23 Aug 08:36:47 08:39:36 47° 321° (NW) 08:42:25 437.200
KAITUO 1B 23 Aug 08:37:25 08:38:17 11° 293° (WNW) 08:39:09 145.475/437.950
CUBEBUG 2 23 Aug 08:39:29 08:43:44 76° 100° (E) 08:48:06 437.445
SEEDS 23 Aug 08:43:41 08:47:57 78° 283° (WNW) 08:52:10 437.485
O/OREOS (USA 219) 23 Aug 08:49:11 08:53:11 34° 104° (ESE) 08:57:13 437.305
ISS 23 Aug 08:55:11 08:58:21 47° 134° (SE) 09:01:32 437.550
nSIGHT-1 23 Aug 08:59:56 09:03:08 58° 135° (SE) 09:06:22 .
ZACube-1 23 Aug 09:00:23 09:04:26 38° 98° (E) 09:08:33 437.345
HO-68 23 Aug 09:06:49 09:13:43 53° 291° (WNW) 09:20:37 435.675
UNISAT 6 23 Aug 09:13:21 09:15:58 16° 68° (ENE) 09:18:34 437.425
AO-73 23 Aug 09:19:44 09:24:01 57° 100° (E) 09:28:22 145.935
AAUSAT CUBESAT 2 23 Aug 09:21:03 09:25:11 64° 285° (WNW) 09:29:18 437.432
XW-2A 23 Aug 09:23:26 09:26:08 22° 288° (WNW) 09:28:49 145.665 - 145.685
NO-84 23 Aug 09:30:55 09:33:07 17° 234° (SW) 09:35:26 435.350 FM
CUTE 1.7 + AOD 2 23 Aug 09:39:01 09:40:38 12° 294° (WNW) 09:42:14 437.475
TIGRISAT 23 Aug 09:46:11 09:50:05 34° 72° (ENE) 09:53:56 435.000
Oscar 11 23 Aug 10:01:42 10:06:01 63° 284° (WNW) 10:10:19 .
DELFI C3 23 Aug 10:02:10 10:05:30 26° 96° (E) 10:08:48 145.870
RS-15 23 Aug 10:02:10 10:13:03 41° 106° (ESE) 10:24:05 29.354- 29.394
PRISM 23 Aug 10:02:53 10:06:45 39° 73° (ENE) 10:10:39 437.425
EO-88 23 Aug 10:03:45 10:05:45 14° 94° (E) 10:07:45 145.990 - 145.960
UWE-3 23 Aug 10:03:46 10:06:57 21° 290° (WNW) 10:10:12 435.000/436.395/437.385
JUGNU 23 Aug 10:11:15 10:14:27 15° 172° (S) 10:17:40 437.505
FO-29 23 Aug 10:16:59 10:24:22 52° 260° (W) 10:31:08 435.910
O/OREOS (USA 219) 23 Aug 10:29:25 10:32:39 19° 300° (WNW) 10:35:54 437.305
ISS 23 Aug 10:32:38 10:35:00 18° 330° (NNW) 10:37:22 437.550
nSIGHT-1 23 Aug 10:37:37 10:39:45 16° 331° (NNW) 10:41:54 .
ZACube-1 23 Aug 10:37:40 10:40:24 17° 292° (WNW) 10:43:09 437.345
M-CUBED/EXP-1 PRIME 23 Aug 10:41:32 10:44:49 20° 63° (ENE) 10:48:10 437.505
AIST 2D 23 Aug 10:45:24 10:47:25 15° 70° (ENE) 10:49:27 435.315
Max Valier Satellite 23 Aug 10:47:56 10:51:39 80° 101° (E) 10:55:22 145.860
UNISAT 6 23 Aug 10:48:20 10:52:22 38° 262° (W) 10:56:21 437.425
AO-73 23 Aug 10:58:24 10:59:44 11° 294° (WNW) 11:01:05 145.935
QB50P2 23 Aug 11:07:38 11:10:07 16° 67° (ENE) 11:12:37 145.880/145.840
EO-79 23 Aug 11:07:40 11:09:50 14° 67° (ENE) 11:12:00 145.935-145.965
TIGRISAT 23 Aug 11:24:02 11:26:50 17° 266° (W) 11:29:36 435.000
LO-87 23 Aug 11:24:11 11:26:32 17° 95° (E) 11:28:52 145.935 - 145.965
ESTCUBE 1 23 Aug 11:29:09 11:31:42 15° 93° (E) 11:34:13 437.505/2401.250
DUCHIFAT 1 23 Aug 11:33:06 11:36:16 21° 69° (ENE) 11:39:26 145.980
EO-88 23 Aug 11:36:14 11:39:26 29° 288° (WNW) 11:42:38 145.990 - 145.960
DELFI C3 23 Aug 11:37:14 11:40:04 19° 291° (WNW) 11:42:53 145.870
PRISM 23 Aug 11:39:59 11:42:09 14° 267° (W) 11:44:19 437.425
JUGNU 23 Aug 11:59:04 12:02:42 17° 183° (S) 12:06:21 437.505
RS-15 23 Aug 12:13:06 12:25:04 58° 306° (NW) 12:37:15 29.354- 29.394
M-CUBED/EXP-1 PRIME 23 Aug 12:14:41 12:18:52 39° 257° (WSW) 12:23:13 437.505
SRMSAT 23 Aug 12:17:01 12:19:16 12° 168° (SSE) 12:21:31 437.500
AIST 2D 23 Aug 12:17:29 12:20:22 24° 264° (W) 12:23:17 435.315
NANOSAT C BR1 23 Aug 12:18:32 12:22:43 89° 71° (ENE) 12:26:55 145.865
POLYITAN 1 23 Aug 12:26:01 12:30:10 65° 259° (W) 12:34:20 437.675
EO-79 23 Aug 12:41:13 12:45:11 42° 261° (W) 12:49:11 145.935-145.965
QB50P2 23 Aug 12:41:40 12:45:34 37° 262° (W) 12:49:29 145.880/145.840
SPROUT 23 Aug 12:44:56 12:48:23 24° 96° (E) 12:51:50 437.525
BUGSAT 1 23 Aug 12:56:16 13:00:14 53° 75° (ENE) 13:04:11 437.445
LO-87 23 Aug 12:57:07 12:59:53 22° 288° (WNW) 13:02:39 145.935 - 145.965
VELOX 1 23 Aug 12:58:48 13:02:34 27° 97° (E) 13:06:17 145.980
ESTCUBE 1 23 Aug 13:04:21 13:08:39 44° 287° (WNW) 13:12:56 437.505/2401.250
DUCHIFAT 1 23 Aug 13:08:17 13:11:46 26° 264° (W) 13:15:15 145.980
50 SAT 23 Aug 13:17:32 13:18:56 12° 94° (E) 13:20:20 437.505
Gurwin Techsat 1B 23 Aug 13:28:26 13:33:11 34° 70° (ENE) 13:37:57 435.225
Oscar 19 23 Aug 13:31:07 13:36:08 57° 73° (ENE) 13:41:12 437.125/150
AO-7 23 Aug 13:46:30 13:51:00 16° 52° (NE) 13:55:30 .
JUGNU 23 Aug 13:48:51 13:50:56 12° 193° (SSW) 13:53:02 437.505
UKube-1 23 Aug 13:59:46 14:03:09 22° 96° (E) 14:06:31 .
SRMSAT 23 Aug 14:04:03 14:07:39 17° 178° (S) 14:11:15 437.500
AO-85 23 Aug 14:04:07 14:08:25 53° 59° (ENE) 14:13:02 145.980
BEESAT 3 23 Aug 14:08:05 14:12:04 82° 242° (WSW) 14:15:57 437.485
SPROUT 23 Aug 14:20:47 14:24:10 24° 290° (WNW) 14:27:32 437.525
DX 1 23 Aug 14:26:44 14:31:06 77° 103° (ESE) 14:35:25 434.975-435.025
BEESAT 2 23 Aug 14:28:38 14:32:35 49° 58° (ENE) 14:36:28 435.950
RS-15 23 Aug 14:32:44 14:41:06 20° 335° (NNW) 14:49:28 29.354- 29.394
VELOX 1 23 Aug 14:35:24 14:38:50 23° 291° (WNW) 14:42:15 145.980
50 SAT 23 Aug 14:48:44 14:51:37 26° 288° (WNW) 14:54:27 437.505
ITAMSAT 1 23 Aug 14:58:03 15:02:15 26° 68° (ENE) 15:06:29 435.822/435.867
Tancredo 1 23 Aug 15:01:37 15:04:19 35° 37° (NE) 15:07:01 437.200
Gurwin Techsat 1B 23 Aug 15:08:47 15:13:07 25° 264° (W) 15:17:29 435.225
Oscar 19 23 Aug 15:13:02 15:15:46 14° 268° (W) 15:18:30 437.125/150
YUBILEINY 23 Aug 15:25:42 15:33:48 43° 88° (E) 15:41:53 435.215
ISS 23 Aug 15:25:49 15:28:14 19° 30° (NNE) 15:30:40 437.550
nSIGHT-1 23 Aug 15:30:06 15:32:40 21° 32° (NNE) 15:35:14 .
AO-7 23 Aug 15:34:05 15:42:26 78° 71° (ENE) 15:50:49 .
UKube-1 23 Aug 15:35:30 15:39:06 26° 290° (WNW) 15:42:40 .
BEESAT 23 Aug 15:36:01 15:40:06 28° 97° (E) 15:44:10 436.000
AO-85 23 Aug 15:46:09 15:48:28 14° 250° (WSW) 15:50:51 145.980
SRMSAT 23 Aug 15:52:59 15:56:02 14° 188° (S) 15:59:06 437.500
BEESAT 2 23 Aug 16:08:31 16:09:50 11° 252° (WSW) 16:11:09 435.950
ITUPSAT 1 23 Aug 16:11:53 16:16:40 69° 102° (ESE) 16:21:25 437.325
MOZHAYETS 4 23 Aug 16:30:07 16:34:45 83° 282° (WNW) 16:39:23
DOVE 4 23 Aug 16:35:16 16:38:44 18° 67° (ENE) 16:42:07 437.250
ITAMSAT 1 23 Aug 16:36:52 16:41:31 33° 262° (W) 16:46:13 435.822/435.867
Tancredo 1 23 Aug 16:37:44 16:39:13 13° 232° (SW) 16:40:43 437.200
RS-15 23 Aug 16:54:09 17:00:48 16° 13° (NNE) 17:07:19 29.354- 29.394
CUBESAT XI-V 23 Aug 16:58:18 17:02:40 37° 98° (E) 17:07:00 437.345
ISS 23 Aug 17:01:45 17:04:51 42° 227° (SW) 17:07:56 437.550
nSIGHT-1 23 Aug 17:06:08 17:09:07 34° 227° (SW) 17:12:04 .
BEESAT 23 Aug 17:13:48 17:17:44 26° 291° (WNW) 17:21:39 436.000
YUBILEINY 23 Aug 17:22:41 17:30:35 37° 285° (WNW) 17:38:31 435.215
CUTE-I 23 Aug 17:29:33 17:33:16 19° 65° (ENE) 17:36:58 437.470
AO-7 23 Aug 17:30:19 17:35:51 19° 266° (W) 17:41:26 .
KAITUO 1B 23 Aug 17:39:35 17:41:31 14° 68° (ENE) 17:43:29 145.475/437.950
HO-68 23 Aug 17:48:13 17:51:48 15° 57° (ENE) 17:55:24 435.675
ITUPSAT 1 23 Aug 17:52:18 17:53:52 12° 297° (WNW) 17:55:26 437.325
KKS-1 23 Aug 17:55:39 18:00:04 66° 102° (ESE) 18:04:26 437.445
NUDT-PHONESAT 23 Aug 18:06:07 18:09:17 28° 73° (ENE) 18:12:30 437.300
DOVE 4 23 Aug 18:10:50 18:15:58 51° 261° (W) 18:21:00 437.250
LilacSat-2 23 Aug 18:11:43 18:15:23 54° 75° (ENE) 18:19:06 437.200
XW-2D 23 Aug 18:11:56 18:15:34 52° 76° (ENE) 18:19:16 145.860 - 145.880
XW-2B 23 Aug 18:23:00 18:26:43 72° 76° (ENE) 18:30:29 145.730 - 145.750
STARS 23 Aug 18:25:20 18:29:38 55° 101° (E) 18:33:53 437.465
CUBESAT XI-V 23 Aug 18:36:23 18:39:44 20° 292° (WNW) 18:43:04 437.345
XW-2C 23 Aug 18:42:18 18:45:59 58° 259° (W) 18:49:44 145.795 - 145.815
CUTE 1.7 + AOD 2 23 Aug 18:51:05 18:54:33 25° 71° (ENE) 18:58:03 437.475
XW-2F 23 Aug 18:51:54 18:55:29 45° 261° (W) 18:59:07 145.980 - 146.000
O/OREOS (USA 219) 23 Aug 19:01:36 19:05:55 41° 66° (ENE) 19:10:14 437.305
RS-15 23 Aug 19:07:12 19:18:17 39° 45° (NE) 19:28:47 29.354- 29.394
CUTE-I 23 Aug 19:07:44 19:12:53 48° 260° (W) 19:18:04 437.470
KAITUO 1B 23 Aug 19:11:53 19:15:12 31° 263° (W) 19:18:34 145.475/437.950
UWE-3 23 Aug 19:22:13 19:24:47 16° 68° (ENE) 19:27:21 435.000/436.395/437.385
HO-68 23 Aug 19:31:19 19:38:29 86° 72° (ENE) 19:45:40 435.675
SEEDS 23 Aug 19:32:02 19:36:03 46° 74° (ENE) 19:40:07 437.485
CUBEBUG 2 23 Aug 19:34:43 19:38:43 41° 74° (ENE) 19:42:39 437.445
KKS-1 23 Aug 19:35:29 19:36:01 10° 297° (WNW) 19:36:32 437.445
NUDT-PHONESAT 23 Aug 19:41:13 19:43:12 14° 266° (W) 19:45:13 437.300
XW-2A 23 Aug 19:50:51 19:54:07 65° 77° (ENE) 19:57:26 145.665 - 145.685
ZACube-1 23 Aug 19:54:08 19:57:08 20° 69° (ENE) 20:00:09 437.345
STARS 23 Aug 20:03:54 20:05:27 12° 295° (WNW) 20:06:59 437.465
AAUSAT CUBESAT 2 23 Aug 20:07:41 20:11:43 53° 75° (ENE) 20:15:48 437.432
AO-73 23 Aug 20:12:43 20:16:15 28° 72° (ENE) 20:19:49 145.935
STRAND 1 23 Aug 20:25:04 20:30:09 69° 102° (ESE) 20:35:14 437.568
CUTE 1.7 + AOD 2 23 Aug 20:26:58 20:30:18 22° 265° (W) 20:33:40 437.475
O/OREOS (USA 219) 23 Aug 20:42:12 20:44:56 16° 260° (W) 20:47:39 437.305
DELFI C3 23 Aug 20:46:53 20:47:49 11° 66° (ENE) 20:48:44 145.870
Oscar 11 23 Aug 20:53:04 20:57:19 66° 76° (ENE) 21:01:37 .
UWE-3 23 Aug 20:57:08 21:00:57 34° 262° (W) 21:04:45 435.000/436.395/437.385
SEEDS 23 Aug 21:10:22 21:11:57 12° 268° (W) 21:13:33 437.485
CUBEBUG 2 23 Aug 21:13:24 21:15:28 13° 267° (W) 21:17:32 437.445
RS-15 23 Aug 21:19:42 21:31:19 62° 248° (WSW) 21:42:19 29.354- 29.394
HO-68 23 Aug 21:23:26 21:26:54 14° 269° (W) 21:30:23 435.675
PCSat 23 Aug 21:24:01 21:28:26 26° 107° (ESE) 21:32:53 145.827
Max Valier Satellite 23 Aug 21:24:26 21:27:14 21° 71° (ENE) 21:30:03 145.860
ZACube-1 23 Aug 21:29:42 21:33:13 27° 263° (W) 21:36:45 437.345
FO-29 23 Aug 21:31:28 21:35:30 21° 94° (E) 21:39:24 435.910
AO-73 23 Aug 21:49:37 21:52:29 18° 266° (W) 21:55:21 145.935
STRAND 1 23 Aug 22:06:33 22:08:42 13° 297° (WNW) 22:10:50 437.568
EO-88 23 Aug 22:10:12 22:13:48 69° 76° (ENE) 22:17:26 145.990 - 145.960
DELFI C3 23 Aug 22:18:11 22:22:04 50° 260° (W) 22:25:59 145.870
ESTCUBE 1 23 Aug 22:28:34 22:28:37 10° 64° (ENE) 22:28:43 437.505/2401.250
UNISAT 6 23 Aug 22:42:06 22:46:22 51° 100° (E) 22:50:41 437.425
SO-50 23 Aug 22:46:22 22:50:52 76° 299° (WNW) 22:55:23 436.795
Max Valier Satellite 23 Aug 22:58:20 23:00:58 19° 265° (W) 23:03:37 145.860
PCSat 23 Aug 23:06:38 23:11:36 37° 303° (WNW) 23:16:38 145.827
NO-84 23 Aug 23:09:53 23:10:30 10° 124° (SE) 23:11:06 435.350 FM
FO-29 23 Aug 23:15:52 23:20:45 36° 291° (WNW) 23:25:27 435.910
TIGRISAT 23 Aug 23:16:11 23:20:30 68° 284° (WNW) 23:24:54 435.000
PRISM 23 Aug 23:21:45 23:25:52 82° 284° (WNW) 23:29:57 437.425
LO-87 23 Aug 23:29:06 23:32:41 85° 73° (ENE) 23:36:16 145.935 - 145.965
SPROUT 23 Aug 23:36:41 23:38:46 13° 66° (ENE) 23:40:51 437.525
AIST 2D 23 Aug 23:44:51 23:47:53 26° 97° (E) 23:50:54 435.315
VELOX 1 23 Aug 23:53:45 23:56:45 18° 67° (ENE) 23:59:46 145.980
M-CUBED/EXP-1 PRIME 23 Aug 23:57:15 00:00:07 18° 98° (E) 00:02:50 437.505
ESTCUBE 1 24 Aug 00:00:17 00:04:47 70° 259° (W) 00:09:18 437.505/2401.250
NANOSAT C BR1 24 Aug 00:06:37 00:09:24 17° 94° (E) 00:12:11 145.865
POLYITAN 1 24 Aug 00:14:03 00:17:29 24° 96° (E) 00:20:55 437.675
UNISAT 6 24 Aug 00:20:45 00:22:38 13° 294° (WNW) 00:24:30 437.425
EO-79 24 Aug 00:28:30 00:32:23 35° 98° (E) 00:36:15 145.935-145.965
QB50P2 24 Aug 00:28:58 00:32:58 40° 99° (E) 00:36:56 145.880/145.840
NO-84 24 Aug 00:44:45 00:47:36 38° 317° (NW) 00:50:19 435.350 FM
UKube-1 24 Aug 00:52:28 00:54:42 14° 66° (ENE) 00:56:57 .
DUCHIFAT 1 24 Aug 00:54:06 00:58:14 57° 101° (E) 01:02:21 145.980
SPROUT 24 Aug 01:10:10 01:14:14 45° 261° (W) 01:18:19 437.525
50 SAT 24 Aug 01:15:55 01:19:15 53° 75° (ENE) 01:22:35 437.505
AIST 2D 24 Aug 01:18:45 01:20:49 15° 290° (WNW) 01:22:54 435.315
DX 1 24 Aug 01:19:05 01:23:15 44° 73° (ENE) 01:27:25 434.975-435.025
VELOX 1 24 Aug 01:28:47 01:32:53 36° 262° (W) 01:37:01 145.980
M-CUBED/EXP-1 PRIME 24 Aug 01:30:53 01:34:36 30° 294° (WNW) 01:38:02 437.505
YUBILEINY 24 Aug 01:40:50 01:46:10 17° 66° (ENE) 01:51:27 435.215
NANOSAT C BR1 24 Aug 01:41:24 01:45:08 32° 288° (WNW) 01:48:53 145.865
Oscar 19 24 Aug 01:46:08 01:50:25 25° 96° (E) 01:54:39 437.125/150
Gurwin Techsat 1B 24 Aug 01:48:29 01:51:51 17° 93° (E) 01:55:12 435.225
POLYITAN 1 24 Aug 01:49:46 01:53:08 24° 290° (WNW) 01:56:30 437.675
EO-79 24 Aug 02:05:12 02:07:49 16° 292° (WNW) 02:10:25 145.935-145.965
QB50P2 24 Aug 02:06:03 02:08:23 15° 293° (WNW) 02:10:42 145.880/145.840
BUGSAT 1 24 Aug 02:15:44 02:19:42 56° 285° (WNW) 02:23:39 437.445
UKube-1 24 Aug 02:26:10 02:30:18 45° 260° (W) 02:34:28 .
DUCHIFAT 1 24 Aug 02:32:37 02:33:21 10° 295° (WNW) 02:34:05 145.980
BEESAT 24 Aug 02:39:49 02:43:35 24° 68° (ENE) 02:47:21 436.000
DX 1 24 Aug 02:57:24 02:59:36 14° 267° (W) 03:01:49 434.975-435.025
ITUPSAT 1 24 Aug 03:15:34 03:20:12 57° 74° (ENE) 03:24:52 437.325
ITAMSAT 1 24 Aug 03:16:37 03:17:11 10° 91° (E) 03:17:46 435.822/435.867
Oscar 19 24 Aug 03:25:03 03:29:42 34° 290° (WNW) 03:34:19 437.125/150
Gurwin Techsat 1B 24 Aug 03:26:54 03:32:02 51° 288° (WNW) 03:37:09 435.225
MOZHAYETS 4 24 Aug 03:28:44 03:33:14 66° 75° (ENE) 03:37:46
YUBILEINY 24 Aug 03:35:17 03:44:01 85° 264° (W) 03:52:43 435.215
AO-7 24 Aug 03:39:50 03:46:56 30° 97° (E) 03:53:57 .
BEESAT 3 24 Aug 03:54:51 03:58:24 32° 113° (ESE) 04:02:01 437.485
CUBESAT XI-V 24 Aug 03:58:52 04:02:43 26° 70° (ENE) 04:06:36 437.345
AO-85 24 Aug 04:16:36 04:20:06 30° 114° (ESE) 04:23:34 145.980
BEESAT 24 Aug 04:17:01 04:21:10 30° 263° (W) 04:25:21 436.000
BEESAT 2 24 Aug 04:18:04 04:20:41 17° 110° (ESE) 04:23:20 435.950
KKS-1 24 Aug 04:50:37 04:54:48 41° 72° (ENE) 04:59:00 437.445
ITAMSAT 1 24 Aug 04:51:58 04:57:08 76° 284° (WNW) 05:02:17 435.822/435.867
ITUPSAT 1 24 Aug 04:56:23 04:58:19 12° 268° (W) 05:00:16 437.325
STARS 24 Aug 05:18:59 05:22:57 34° 71° (ENE) 05:26:55 437.465
AO-7 24 Aug 05:31:55 05:39:54 53° 294° (WNW) 05:47:51 .
BEESAT 3 24 Aug 05:33:03 05:36:01 20° 309° (NW) 05:39:00 437.485
YUBILEINY 24 Aug 05:35:38 05:39:23 14° 283° (WNW) 05:43:09 435.215
CUBESAT XI-V 24 Aug 05:36:05 05:39:58 26° 264° (W) 05:43:54 437.345
BEESAT 2 24 Aug 05:54:30 05:58:08 33° 305° (NW) 06:01:49 435.950
AO-85 24 Aug 05:57:42 06:00:30 18° 309° (NW) 06:03:18 145.980
DOVE 4 24 Aug 06:13:11 06:17:30 54° 100° (E) 06:21:37 437.250
PCSat 24 Aug 06:15:29 06:18:09 14° 47° (NE) 06:20:47 145.827
XW-2C 24 Aug 06:18:29 06:21:03 17° 94° (E) 06:23:37 145.795 - 145.815
XW-2F 24 Aug 06:27:12 06:30:07 20° 95° (E) 06:33:01 145.980 - 146.000
KKS-1 24 Aug 06:28:55 06:31:30 15° 266° (W) 06:34:05 437.445
KAITUO 1B 24 Aug 06:45:36 06:48:54 27° 97° (E) 06:52:10 145.475/437.950
STARS 24 Aug 06:56:19 06:59:19 18° 265° (W) 07:02:20 437.465
HO-68 24 Aug 07:03:56 07:08:40 19° 93° (E) 07:13:23 435.675
